Tracking 25734 objects as of 29-May-2022
HD Live streaming from Space Station
objects crossing your sky now

SL-8 R/B

Track SL-8 R/B now!
10-day predictions


NORAD ID: 12150
Int'l Code: 1981-006B
Perigee: 946.7 km
Apogee: 1,015.2 km
Inclination: 65.8 °
Period: 104.6 minutes
Semi major axis: 7351 km
RCS: 5.2266 m2 (large)
Launch date: January 21, 1981
Source: Commonwealth of Independent States (former USSR) (CIS)
Launch site: PLESETSK MISSILE AND SPACE COMPLEX (PKMTR)

Note: This is a ROCKET BODY
aabbcc
Your satellite tracking list
Your tracking list is empty




NASA's NSSDC Master Catalog

Two Line Element Set (TLE):
1 12150U 81006B   22148.68540231 -.00000034  00000-0  47544-4 0  9996
2 12150  65.8215 271.0794 0046563  29.2007 331.1645 13.77199778 77648
Source of the keplerian elements: AFSPC